{"data":{"norad_id":66490,"intl_designator":"2025-263F","name":"STARLINK-35693","alt_names":[],"object_type":"PAYLOAD","status":"ACTIVE","operator":null,"country":"US","launch_date":"2025-11-15","launch_site_code":"AFETR","launch_vehicle":null,"mission":null,"orbit_class":"UNKNOWN","rcs_meters":null,"size_class":null,"mass_kg":null,"dimensions":null,"purposes":["comms"],"wikipedia_slug":null,"has_3d_model":false,"image_url":null,"decayed_at":null,"tle_current":{"epoch":"2026-09-19T12:10:16.292064Z","epoch_age_seconds":175138,"freshness":"STALE","line1":"1 66490U 25263F   26262.50713301  .00004993  00000+0  19071-3 0  9996","line2":"2 66490  43.0032 335.8741 0001058 283.6901  76.3833 15.27605337 48543","mean_motion":15.27605337,"eccentricity":0.0001058,"inclination_deg":43.0032,"raan_deg":335.8741,"arg_perigee_deg":283.6901,"mean_anomaly_deg":76.3833,"bstar":0.00019071,"rev_number":4854,"period_min":94.265185196849,"perigee_km":482.24732353312,"apogee_km":483.69913445757,"semimajor_km":6861.1102289953,"source":"CELESTRAK","updated_at":"2026-09-21T09:00:35.920039Z"}}}